Warning: Javascript must be enabled to use all the features on this page!


Page Loading - Please Wait...

Click to hideNews Bulletins
  • Notice of planned maintenance to underlying USGS network September 24-26, 2021: During this maintenance period users may experience intermittent periods of inaccessibility or delayed delivery of hydrologic data to the USGS National Water Information System (NWIS). Please email gs-w_support_nwisweb@usgs.gov with any concerns regarding impacts to data delivery.
  • Explore the NEW USGS National Water Dashboard interactive map to access real-time water data from over 13,500 stations nationwide.
  • Full News RSS icon

Peak Streamflow for Washington

Click to hide state-specific text

USGS 14123500 WHITE SALMON RIVER NEAR UNDERWOOD, WA

Skamania County, Washington
Hydrologic Unit Code 17070105
Latitude  45°45'08", Longitude 121°31'33" NAD27
Drainage area 386  square miles
Gage datum 112.96 feet above NGVD29
Output formats
Table
Graph
Tab-separated file
peakfq (watstore) format
Reselect output format
Water
Year
Date Gage
Height
(feet)
Stream-
flow
(cfs)
1916 1916-03-21 5.003 4,1005
1917 1917-06-09 30.003 2,1305
1918 1917-12-29 9.503 9,7005
1919 1919-01-23 7.453 5,8005
1920 1920-01-26 5.833 3,8205
1921 1921-03-18 5.983 4,3005
1922 1921-12-01 5.673 3,9305
1923 1923-01-07 8.003 6,8005
1924 1924-02-01 5.103 3,0605
1925 1925-02-03 6.803 5,1905
1926 1926-02-06 4.753 2,7805
1927 1927-02-22 6.253 4,4105
1928 1927-11-25 6.903 5,3205
1929 1929-05-03 4.773 2,7205
1930 1930-02-20 5.153 3,2205
1936 1936-05-18 6.90 3,4905
1937 1937-04-15 7.47 4,2105
1938 1937-12-29 9.05 7,3005
1939 1939-02-15 5.65 2,2605
1940 1940-02-28 6.91 3,9205
1941 1941-01-19 5.09 1,7505
1942 1941-12-19 6.81 3,7905
1943 1943-03-31 8.31 6,0005
1944 1943-12-03 5.10 1,7205
1945 1945-02-08 6.49 3,4405
1946 1945-12-29 7.73 5,2805
1947 1946-12-13 8.68 6,9105
1948 1948-01-07 8.40 6,4305
1949 1949-02-17 8.84 7,2005
1950 1950-02-24 7.69 5,2605
1951 1951-02-11 8.29 6,2405
1952 1952-02-04 7.95 5,9005
1953 1953-01-18 8.50 7,1705
1954 1954-02-21 7.10 4,4105
1955 1955-06-11 5.64 2,3305
1956 1955-12-22 8.22 6,4205
1957 1957-02-26 7.00 4,2505
1958 1958-01-29 7.52 5,1305
1959 1959-01-12 7.32 4,7805
1960 1960-02-08 6.71 3,7905
1961 1961-02-10 8.18 6,3405
1962 1962-05-14 6.22 3,0705
1963 1962-11-20 7.68 5,4105
1964 1964-01-25 7.44 4,9905
1965 1964-12-23 9.74 9,6405
1966 1966-05-06 5.91 2,6505
1967 1967-01-29 7.19 4,5705
1968 1968-02-19 8.48 6,9305
1969 1969-01-07 7.42 4,9505
1970 1970-01-23 9.10 8,0005
1971 1971-01-19 7.10 4,5605
1972 1972-01-21 9.28 8,3605
1973 1972-12-21 9.18 8,1605
1974 1974-01-15 12.85 15,3005
1975 1975-01-25 7.29 4,8605
1976 1975-12-04 9.34 8,2505
1977 1977-05-04 4.67 1,5005
1978 1977-12-14 10.21 9,9805
1979 1979-02-07 5.44 2,2905
1980 1980-02-28 6.23 3,2805
1981 1980-12-26 9.75 10,3005
1982 1982-02-20 11.31 12,4005
1983 1983-01-08 7.89 5,8505
1984 1984-01-25 6.16 3,2605
1985 1985-06-10 6.22 3,3105
1986 1986-02-23 8.23 6,3405
1987 1987-03-04 6.00 3,0305
1988 1987-12-09 6.14 3,2005
1989 1989-04-26 6.15 3,2205
1990 1990-01-10 8.21 6,3005
1991 1990-11-25 6.36 3,4905
1992 1992-02-22 5.84 2,8205
1993 1993-04-27 6.13 3,1905
1994 1994-04-19 4.63 1,5005
1995 1995-01-31 8.22 6,4805
1996 1996-02-08 19.16 45,2005,9
1997 1997-01-02 9.64 8,2305
1998 1997-10-31 7.71 4,5705
1999 1998-12-28 8.77 6,3705
2000 1999-11-26 8.71 6,3705
2001 2001-05-15 5.38 1,7705
2002 2002-01-08 7.65 4,5905
2003 2003-01-31 10.72 10,9005
2004 2004-01-30 6.40 2,9005
2005 2005-03-27 6.75 3,3405
2006 2006-01-11 9.53 8,0305
2007 2006-12-14 8.53 6,0405
2008 2007-12-04 7.78 4,7805
2009 2009-01-08 7.96 5,0705
2010 2010-01-18 6.18 2,6405
2011 2011-01-17 9.11 7,1405
2012 2011-10-26 12.63 16,5003
2013 2012-11-20 6.59 2,960
2014 2014-03-06 7.09 3,880
2015 2015-02-10 6.08 2,820
2016 2015-12-09 10.252 9,700
2017 2017-03-15 6.87 3,850
2018 2017-11-24 6.08 2,850
?
  Peak Gage-Height Qualification Codes.
?
  Peak Streamflow Qualification Codes.